[[{"header":{"parameterUnit":"m.s-1","parameterCategory":1,"la1":30.2991,"la2":30.254,"lo1":-89.0895,"lo2":-89.0444,"dy":0.0017,"dx":0.0017,"nx":28,"ny":28,"refTime":"2024-05-05T03:00:00:Z","depth":0,"parameterNumber":2,"parameterNumberName":"U-component_of_WINDS"},"data":[0,0,0,0,0,0,0,0,0,0,0,0,0,0,0,0,0,0,0,0,0,0,0,0,0,0,0,0,0,0,0,0,0,0,0,0,0,0,0,0,0,0,0,0,0,0,0,0,0,0,0,0,0,0,0,0,0,0,-4.1479,-4.148,0,-4.1525,-4.1526,-4.1526,-4.1461,-4.1458,-4.1456,-4.1454,-4.15,-4.1504,-4.1507,0,0,0,0,0,0,0,0,0,0,0,0,0,-4.1338,-4.1341,-4.1479,-4.148,-4.1481,-4.1525,-4.1526,-4.1526,-4.1461,-4.1458,-4.1455,-4.1453,-4.1499,-4.1503,-4.1507,0,0,0,0,0,0,0,0,0,0,0,0,0,-4.1393,-4.1341,-4.1479,-4.1453,-4.1451,-4.1525,-4.1526,-4.1527,-4.1462,-4.1458,-4.1455,-4.1451,-4.1498,-4.1503,-4.1508,-4.1609,0,0,-4.1524,-4.1526,0,0,0,0,0,0,0,0,-4.139,-4.1398,-4.1457,-4.1455,-4.1453,-4.1484,-4.1493,-4.1554,-4.1462,-4.1458,-4.1454,-4.145,-4.1498,-4.1503,-4.1519,-4.1611,-4.1613,-4.1524,-4.1527,-4.1529,-4.1531,0,0,0,0,0,0,0,-4.1386,-4.1396,-4.1497,-4.1458,-4.1456,-4.144,-4.1444,-4.1504,-4.1497,-4.1458,-4.1453,-4.146,-4.1496,-4.1514,-4.1519,-4.1614,-4.1524,-4.1528,-4.1532,-4.1534,-4.1794,-4.1798,0,0,0,0,0,0,-4.1385,-4.1393,-4.1496,-4.1499,-4.1412,-4.1446,-4.145,-4.1477,-4.1496,-4.1495,-4.1462,-4.1456,-4.1507,-4.1513,-4.1521,-4.1641,-4.1529,-4.1534,-4.1537,-4.179,-4.1795,-4.1799,0,0,0,0,0,0,-4.1382,-4.1395,-4.1494,-4.1445,-4.1456,-4.1452,-4.1483,-4.148,-4.1498,-4.1499,-4.1498,-4.1482,-4.1504,-4.1514,-4.1588,-4.1642,-4.1536,-4.1541,-4.1786,-4.1792,-4.1797,-4.1882,0,0,0,0,0,0,-4.1379,-4.1394,-4.1432,-4.1446,-4.1459,-4.156,-4.1486,-4.1484,-4.1507,-4.1499,-4.1517,-4.1517,-4.1502,-4.1581,-4.1593,-4.1647,-4.1545,-4.1781,-4.1789,-4.1795,-4.1874,-4.189,-4.1903,0,0,0,0,0,-4.1374,-4.1453,-4.1434,-4.1447,-4.1506,-4.1563,-4.1571,-4.1553,-4.1511,-4.155,-4.1551,-4.1516,-4.1635,-4.1589,-4.1602,-4.1658,-4.1777,-4.1786,-4.1795,-4.1868,-4.1887,-4.1903,0,0,0,0,0,0,-4.1444,-4.1454,-4.1433,-4.152,-4.1541,-4.1552,-4.1599,-4.1573,-4.1607,-4.1598,-4.1575,-4.1579,-4.1659,-4.1667,-4.1616,-4.1758,-4.1699,-4.1711,-4.175,-4.1768,-4.1782,-4.1778,-4.1549,0,0,0,0,0,-4.147,-4.1516,-4.1522,-4.1598,-4.161,-4.1604,-4.1628,-4.1613,-4.1634,-4.1642,-4.1649,-4.1671,-4.1714,-4.1742,-4.1781,-4.1876,-4.188,-4.1922,-4.1936,-4.1948,-4.1958,-4.201,-4.2029,-4.1828,-4.1828,-4.1828,0,0,-4.1523,-4.1535,-4.1564,-4.1613,-4.1627,-4.1676,-4.1611,-4.1664,-4.17,-4.165,-4.1721,-4.1728,-4.1751,-4.1837,-4.1875,-4.1845,-4.2015,-4.1959,-4.1969,-4.1972,-4.2021,-4.204,-4.2057,-4.1834,-4.1833,-4.1832,0,0,-4.1645,-4.1658,-4.1723,-4.174,-4.1764,-4.176,-4.1776,-4.1792,-4.1794,-4.1865,-4.1829,-4.1873,-4.1945,-4.1964,-4.1983,-4.2117,-4.2086,-4.2131,-4.2205,-4.2257,-4.2273,-4.2287,-4.2334,-4.2352,-4.2141,-4.2141,-4.2141,0,-4.1707,-4.1778,-4.176,-4.1816,-4.1839,-4.1798,-4.1864,-4.1882,-4.1918,-4.1935,-4.1902,-4.1994,-4.2007,-4.2097,-4.2131,-4.2148,-4.2166,-4.2127,-4.2272,-4.2286,-4.2298,-4.2344,-4.2362,-4.2146,-4.2146,-4.2145,-4.2145,0,-4.1854,-4.1905,-4.1955,-4.1991,-4.202,-4.2081,-4.2073,-4.2105,-4.2089,-4.2088,-4.2163,-4.2177,-4.2219,-4.224,-4.2224,-4.233,-4.2311,-4.2276,-4.2215,-4.2323,-4.2365,-4.2382,-4.2154,-4.2152,-4.215,-4.2149,0,0,-4.2017,-4.2045,-4.2064,-4.2081,-4.2106,-4.2145,-4.2206,-4.2248,-4.2276,-4.2304,-4.2354,-4.2419,-4.2388,-4.241,-4.2396,-4.2442,-4.2547,-4.2401,-4.2401,-4.2427,-4.2665,-4.269,-4.271,-4.2529,-4.2532,-4.2535,-4.2663,0,-4.2137,-4.2242,-4.2229,-4.2329,-4.2376,-4.234,-4.2394,-4.2416,-4.2419,-4.2459,-4.2463,-4.2509,-4.2464,-4.2477,-4.2521,-4.2525,-4.2595,-4.2516,-4.2575,-4.2578,-4.2568,-4.2732,-4.2758,-4.2878,-4.2679,-4.2682,-4.2684,0,-4.229,-4.2325,-4.243,-4.2451,-4.247,-4.2518,-4.2557,-4.2597,-4.2622,-4.2621,-4.2648,-4.2628,-4.269,-4.2631,-4.2717,-4.2664,-4.2689,-4.2695,-4.27,-4.2702,-4.2636,-4.2738,-4.2916,-4.2934,-4.271,-4.2708,-4.2706,0,-4.2398,-4.2471,-4.2543,-4.2559,-4.2585,-4.262,-4.2633,-4.2655,-4.2682,-4.2717,-4.2735,-4.2776,-4.2799,-4.2832,-4.2824,-4.2782,-4.2913,-4.2853,-4.2914,-4.2914,-4.294,-4.2938,-4.3123,-4.2959,-4.2959,-4.2959,-4.2958,0,-4.2532,-4.2598,-4.2592,-4.2636,-4.271,-4.2696,-4.2769,-4.2778,-4.2799,-4.2845,-4.2818,-4.2862,-4.285,-4.2894,-4.2889,-4.2961,-4.2972,-4.2973,-4.2971,-4.2975,-4.2974,-4.2988,-4.2979,-4.2964,-4.2962,-4.2962,-4.2961,0,-4.2663,-4.2661,-4.2738,-4.2758,-4.2765,-4.2818,-4.2836,-4.2879,-4.2881,-4.294,-4.2953,-4.2957,-4.3008,-4.3005,-4.3062,-4.3058,-4.3148,-4.3137,-4.3139,-4.3136,-4.3197,-4.3191,-4.3395,-4.3421,-4.3243,-4.3244,-4.3246,0,-4.2747,-4.2797,-4.2824,-4.2853,-4.2869,-4.2916,-4.2944,-4.2935,-4.2965,-4.3001,-4.3039,-4.3088,-4.3126,-4.321,-4.3218,-4.3263,-4.3251,-4.332,-4.3257,-4.3261,-4.3251,-4.3248,-4.3253,-4.3331,-4.3333,-4.3335,-4.3336,0,-4.2898,-4.2896,-4.2937,-4.298,-4.3015,-4.3048,-4.3078,-4.3104,-4.3097,-4.3133,-4.3186,-4.3216,-4.3276,-4.3325,-4.3368,-4.3382,-4.3359,-4.3357,-4.3373,-4.3376,-4.3375,-4.3376,-4.3171,-4.3351,-4.335,-4.3349,-4.3348,-4.3347,-4.3007,-4.3051,-4.3077,-4.3125,-4.3147,-4.3177,-4.3218,-4.3227,-4.3271,-4.3319,-4.3311,-4.337,-4.3398,-4.3454,-4.3473,-4.3519,-4.3495,-4.3518,-4.3524,-4.353,-4.3536,-4.337,-4.3527,-4.3527,-4.3527,-4.3526,-4.3526,0,-4.3155,-4.3172,-4.3216,-4.326,-4.3299,-4.3275,-4.3309,-4.3342,-4.3395,-4.3423,-4.3462,-4.3524,-4.3572,-4.3586,-4.3633,-4.3668,-4.3659,-4.3681,-4.3677,-4.3681,-4.3556,-4.3536,-4.3688,-4.3688,-4.3688,-4.3688,-4.3688,-4.3688,-4.3237,-4.3309,-4.3311,-4.3396,-4.3411,-4.3469,-4.349,-4.3518,-4.3541,-4.3611,-4.3652,-4.3661,-4.3684,-4.3733,-4.3778,-4.3781,-4.3799,-4.3825,-4.3824,-4.3706,-4.369,-4.3674,-4.3656,-4.383,-4.383,-4.3945,-4.3946,-4.3947]},{"header":{"parameterUnit":"m.s-1","parameterCategory":1,"la1":30.2991,"la2":30.254,"lo1":-89.0895,"lo2":-89.0444,"dy":0.0017,"dx":0.0017,"nx":28,"ny":28,"refTime":"2024-05-05T03:00:00:Z","depth":0,"parameterNumber":3,"parameterNumberName":"V-component_of_WINDS"},"data":[0,0,0,0,0,0,0,0,0,0,0,0,0,0,0,0,0,0,0,0,0,0,0,0,0,0,0,0,0,0,0,0,0,0,0,0,0,0,0,0,0,0,0,0,0,0,0,0,0,0,0,0,0,0,0,0,0,0,2.8511,2.8512,0,2.8546,2.8546,2.8547,2.8597,2.8598,2.8599,2.8599,2.8631,2.8631,2.8631,0,0,0,0,0,0,0,0,0,0,0,0,0,2.8488,2.8488,2.8511,2.8512,2.8512,2.8546,2.8546,2.8547,2.8597,2.8598,2.8599,2.86,2.8631,2.8631,2.8631,0,0,0,0,0,0,0,0,0,0,0,0,0,2.8508,2.8488,2.8511,2.8541,2.8544,2.8546,2.8546,2.8547,2.8596,2.8598,2.8599,2.86,2.8631,2.8631,2.8631,2.8605,0,0,2.8631,2.8632,0,0,0,0,0,0,0,0,2.8506,2.8508,2.8536,2.8539,2.8542,2.8569,2.855,2.8566,2.8596,2.8576,2.8599,2.8601,2.8609,2.8611,2.8615,2.8607,2.8608,2.8631,2.8632,2.8632,2.8632,0,0,0,0,0,0,0,2.8505,2.8507,2.8525,2.8537,2.854,2.8553,2.8557,2.8553,2.8585,2.8578,2.8582,2.8586,2.8611,2.8614,2.8616,2.8609,2.8631,2.8632,2.8632,2.8632,2.8587,2.8586,0,0,0,0,0,0,2.8499,2.8506,2.8524,2.8526,2.8527,2.8552,2.8557,2.8559,2.8585,2.859,2.8584,2.8588,2.8614,2.8616,2.8617,2.8592,2.8632,2.8632,2.8632,2.8588,2.8587,2.8585,0,0,0,0,0,0,2.8499,2.8501,2.8522,2.8517,2.8521,2.8551,2.8553,2.8559,2.8562,2.859,2.8595,2.8582,2.8615,2.8617,2.8609,2.8593,2.8632,2.8632,2.859,2.8588,2.8586,2.8539,0,0,0,0,0,0,2.8498,2.85,2.849,2.8516,2.8521,2.8514,2.8552,2.8558,2.8563,2.8567,2.8589,2.8594,2.8616,2.8609,2.8609,2.8594,2.8632,2.8591,2.8589,2.8587,2.8542,2.8535,2.853,0,0,0,0,0,2.8497,2.8473,2.8489,2.8491,2.8509,2.8513,2.8515,2.8542,2.8561,2.8552,2.8571,2.8593,2.8595,2.8608,2.8609,2.8593,2.8592,2.8589,2.8587,2.8544,2.8537,2.853,0,0,0,0,0,0,2.8442,2.8477,2.8495,2.848,2.8493,2.8521,2.851,2.8532,2.8539,2.8543,2.8575,2.858,2.8569,2.858,2.8594,2.8572,2.8597,2.8595,2.8565,2.8558,2.8552,2.855,2.8632,0,0,0,0,0,2.8428,2.8429,2.8459,2.8443,2.8449,2.8478,2.8481,2.8501,2.8516,2.8521,2.8539,2.8552,2.8556,2.8557,2.8562,2.8544,2.8551,2.8534,2.8528,2.8523,2.852,2.8516,2.8509,2.8576,2.8576,2.8576,0,0,2.8399,2.8419,2.8416,2.8432,2.8445,2.8446,2.8483,2.848,2.8481,2.852,2.8516,2.8529,2.8546,2.8534,2.853,2.8543,2.8504,2.852,2.8516,2.8516,2.8512,2.8506,2.85,2.8574,2.8575,2.8575,0,0,2.8347,2.8361,2.8351,2.8364,2.8385,2.8405,2.8403,2.8429,2.844,2.8436,2.8467,2.8469,2.8474,2.8486,2.8492,2.8451,2.8473,2.8452,2.842,2.8415,2.841,2.8406,2.8393,2.8388,2.8449,2.8449,2.8449,0,2.8308,2.8311,2.8342,2.834,2.8347,2.8386,2.8377,2.8387,2.8407,2.8412,2.8427,2.8438,2.8451,2.8445,2.8435,2.8439,2.8438,2.8449,2.8409,2.8404,2.8401,2.8389,2.8384,2.8446,2.8446,2.8447,2.8447,0,2.8264,2.8265,2.8254,2.8276,2.8282,2.8276,2.8307,2.831,2.8331,2.835,2.8348,2.8366,2.8377,2.8377,2.8396,2.8375,2.8383,2.8403,2.8429,2.8391,2.8381,2.8377,2.8442,2.8443,2.8444,2.8445,0,0,2.8175,2.8218,2.8213,2.8226,2.8253,2.8255,2.8252,2.8265,2.8268,2.8281,2.8281,2.8287,2.8308,2.8315,2.8336,2.8331,2.8301,2.8353,2.8354,2.8344,2.8282,2.8268,2.8262,2.8317,2.8316,2.8315,2.8282,0,2.8129,2.8127,2.8158,2.8148,2.8152,2.8191,2.8189,2.8206,2.8225,2.8231,2.8251,2.8256,2.8281,2.8287,2.8284,2.8305,2.8289,2.8308,2.8317,2.8317,2.8313,2.8256,2.824,2.8207,2.8278,2.8277,2.8276,0,2.8075,2.8089,2.808,2.8113,2.8115,2.8112,2.813,2.8135,2.8156,2.817,2.8182,2.8207,2.8208,2.8233,2.8236,2.8248,2.8254,2.8265,2.8265,2.8267,2.8294,2.8258,2.8197,2.8192,2.827,2.827,2.8271,0,2.8014,2.8031,2.8029,2.8037,2.8074,2.8072,2.8087,2.811,2.8118,2.8133,2.8139,2.8152,2.816,2.8171,2.82,2.8215,2.82,2.8227,2.8213,2.8212,2.8207,2.8207,2.8147,2.821,2.821,2.821,2.821,0,2.796,2.7954,2.8003,2.8001,2.7996,2.8032,2.8026,2.8045,2.8066,2.807,2.8104,2.8107,2.8145,2.8152,2.8175,2.8176,2.8178,2.8191,2.8197,2.8188,2.8187,2.8192,2.8196,2.8208,2.8209,2.8209,2.8209,0,2.7891,2.7923,2.7924,2.7961,2.797,2.7965,2.7996,2.7997,2.802,2.8025,2.8028,2.8063,2.8075,2.8106,2.8123,2.8139,2.8133,2.8144,2.8127,2.8131,2.8116,2.8118,2.8058,2.8053,2.8117,2.8116,2.8116,0,2.7855,2.7851,2.7889,2.7895,2.791,2.7918,2.7928,2.7964,2.7972,2.8,2.7998,2.8012,2.8026,2.8042,2.8069,2.8084,2.8097,2.8075,2.8099,2.8092,2.8099,2.8099,2.81,2.807,2.8069,2.8068,2.8067,0,2.7788,2.7806,2.7818,2.7837,2.7848,2.7864,2.7883,2.7886,2.7927,2.7935,2.7948,2.7959,2.798,2.7995,2.8015,2.8031,2.8057,2.806,2.8058,2.8049,2.804,2.8047,2.8114,2.8061,2.8062,2.8062,2.8062,2.8063,2.7736,2.7736,2.7764,2.7778,2.7797,2.7814,2.7818,2.7844,2.7856,2.7877,2.7898,2.791,2.7935,2.7966,2.798,2.799,2.8003,2.8,2.7999,2.7998,2.7995,2.8038,2.7994,2.7994,2.7994,2.7995,2.7995,0,2.7673,2.7694,2.7707,2.7733,2.7745,2.7771,2.7793,2.7801,2.7812,2.7834,2.7848,2.7865,2.7881,2.7911,2.793,2.7932,2.7945,2.7936,2.7937,2.7941,2.7981,2.7982,2.7926,2.7926,2.7926,2.7926,2.7926,2.7926,2.7642,2.7645,2.7666,2.768,2.7701,2.7715,2.7726,2.7743,2.7762,2.778,2.7794,2.7815,2.7841,2.7863,2.7879,2.7888,2.7893,2.7881,2.7894,2.7931,2.7937,2.7943,2.7945,2.7882,2.7882,2.7853,2.7853,2.7852]}]]